When you browse on this site, cookies collect data to enhance your experience and personalize the content and advertising you see.
Visit our Privacy Policy to learn more. By continuing to use the site, you agree to this use of cookies and data.
  • In Hungary
  • List of Countries
  • For 7 days
  • Water Temperature
  • Satellite Maps
  • Weather Map
  • News
  • Weather Widgets
  • user-avatar
    Login

    Hourly Weather Bir Umm Karajn

    Today, 22 January, Tuesday

    Time Temperature Precipitation Wind Pressure Humidity
    00:00 +11°C° 0 mm 7 mps 734 mmHg 72%
    01:00 +11°C° 0 mm 7 mps 734 mmHg 75%
    02:00 +10°C° 0 mm 7 mps 734 mmHg 78%
    03:00 +10°C° 0 mm 7 mps 734 mmHg 78%
    04:00 +10°C° 0 mm 7 mps 734 mmHg 78%
    05:00 +9°C° 0 mm 8 mps 734 mmHg 79%
    06:00 +10°C° 0 mm 8 mps 734 mmHg 75%
    07:00 +10°C° 0 mm 9 mps 735 mmHg 71%
    08:00 +11°C° 0 mm 9 mps 735 mmHg 67%
    09:00 +13°C° 0 mm 8 mps 735 mmHg 56%
    10:00 +16°C° 0 mm 7 mps 735 mmHg 44%
    11:00 +20°C° 0 mm 6 mps 736 mmHg 31%
    12:00 +21°C° 0 mm 6 mps 735 mmHg 27%
    13:00 +22°C° 0 mm 5 mps 735 mmHg 23%
    14:00 +23°C° 0 mm 5 mps 735 mmHg 19%
    15:00 +22°C° 0 mm 4 mps 735 mmHg 19%
    16:00 +22°C° 0 mm 4 mps 734 mmHg 19%
    17:00 +21°C° 0 mm 3 mps 734 mmHg 19%
    18:00 +20°C° 0 mm 3 mps 734 mmHg 21%
    19:00 +19°C° 0 mm 4 mps 735 mmHg 23%
    20:00 +18°C° 0 mm 4 mps 735 mmHg 25%
    21:00 +16°C° 0 mm 5 mps 735 mmHg 32%
    22:00 +15°C° 0 mm 6 mps 735 mmHg 38%
    23:00 +14°C° 0 mm 6 mps 735 mmHg 44%

    Tomorrow, 23 January, Wednesday

    Time Temperature Precipitation Wind Pressure Humidity
    00:00 +13°C° 0 mm 6 mps 735 mmHg 47%
    01:00 +13°C° 0 mm 6 mps 735 mmHg 49%
    02:00 +11°C° 0 mm 6 mps 735 mmHg 52%
    03:00 +10°C° 0 mm 6 mps 735 mmHg 54%
    04:00 +10°C° 0 mm 6 mps 735 mmHg 57%
    05:00 +10°C° 0 mm 6 mps 735 mmHg 60%
    06:00 +10°C° 0 mm 7 mps 735 mmHg 60%
    07:00 +10°C° 0 mm 7 mps 736 mmHg 61%
    08:00 +10°C° 0 mm 7 mps 736 mmHg 61%
    09:00 +14°C° 0 mm 7 mps 736 mmHg 52%
    10:00 +16°C° 0 mm 6 mps 736 mmHg 42%
    11:00 +19°C° 0 mm 5 mps 736 mmHg 33%
    12:00 +20°C° 0 mm 5 mps 735 mmHg 29%
    13:00 +21°C° 0 mm 4 mps 735 mmHg 25%
    14:00 +22°C° 0 mm 4 mps 734 mmHg 22%
    15:00 +22°C° 0 mm 4 mps 734 mmHg 25%
    16:00 +21°C° 0 mm 4 mps 733 mmHg 29%
    17:00 +20°C° 0 mm 4 mps 733 mmHg 32%
    18:00 +19°C° 0 mm 4 mps 733 mmHg 40%
    19:00 +18°C° 0 mm 4 mps 733 mmHg 48%
    20:00 +15°C° 0 mm 4 mps 734 mmHg 55%
    21:00 +15°C° 0 mm 4 mps 734 mmHg 61%
    22:00 +14°C° 0 mm 5 mps 734 mmHg 67%
    23:00 +13°C° 0 mm 5 mps 733 mmHg 73%

    Day after tomorrow, 24 January, Thursday

    Time Temperature Precipitation Wind Pressure Humidity
    00:00 +13°C° 0 mm 5 mps 733 mmHg 77%
    01:00 +12°C° 0 mm 4 mps 733 mmHg 82%
    02:00 +12°C° 0 mm 4 mps 733 mmHg 86%
    03:00 +12°C° 0 mm 4 mps 732 mmHg 86%
    04:00 +12°C° 0 mm 4 mps 732 mmHg 86%
    05:00 +12°C° 0 mm 5 mps 732 mmHg 86%
    06:00 +12°C° 0 mm 5 mps 732 mmHg 83%
    07:00 +11°C° 0 mm 6 mps 732 mmHg 79%
    08:00 +13°C° 0 mm 6 mps 732 mmHg 76%
    09:00 +14°C° 0 mm 6 mps 732 mmHg 66%
    10:00 +16°C° 0 mm 5 mps 732 mmHg 57%
    11:00 +19°C° 0 mm 5 mps 732 mmHg 47%
    12:00 +20°C° 0 mm 5 mps 731 mmHg 42%
    13:00 +21°C° 0 mm 5 mps 731 mmHg 37%
    14:00 +22°C° 0 mm 4 mps 730 mmHg 32%
    15:00 +21°C° 0 mm 4 mps 730 mmHg 34%
    16:00 +21°C° 0 mm 4 mps 730 mmHg 35%
    17:00 +20°C° 0 mm 4 mps 730 mmHg 36%
    18:00 +19°C° 0 mm 4 mps 730 mmHg 42%
    19:00 +18°C° 0 mm 4 mps 731 mmHg 48%
    20:00 +17°C° 0 mm 4 mps 731 mmHg 54%
    21:00 +15°C° 0 mm 5 mps 731 mmHg 58%
    22:00 +14°C° 0 mm 5 mps 731 mmHg 63%
    23:00 +14°C° 0 mm 5 mps 731 mmHg 68%

    25 January, Friday

    Time Temperature Precipitation Wind Pressure Humidity
    00:00 +13°C° 0 mm 5 mps 731 mmHg 72%
    01:00 +12°C° 0 mm 4 mps 731 mmHg 76%
    02:00 +12°C° 0 mm 4 mps 730 mmHg 79%
    03:00 +11°C° 0 mm 3 mps 730 mmHg 82%
    04:00 +11°C° 0 mm 3 mps 730 mmHg 85%
    05:00 +10°C° 0 mm 2 mps 730 mmHg 87%
    06:00 +12°C° 0 mm 2 mps 731 mmHg 84%
    07:00 +13°C° 0 mm 2 mps 731 mmHg 82%
    08:00 +13°C° 0 mm 2 mps 732 mmHg 79%
    09:00 +15°C° 0 mm 2 mps 732 mmHg 70%
    10:00 +17°C° 0 mm 2 mps 732 mmHg 61%
    11:00 +18°C° 0 mm 2 mps 732 mmHg 52%
    12:00 +19°C° 0 mm 2 mps 732 mmHg 47%
    13:00 +21°C° 0 mm 2 mps 731 mmHg 41%
    14:00 +23°C° 0 mm 1 mps 730 mmHg 36%
    15:00 +23°C° 0 mm 1 mps 731 mmHg 36%
    16:00 +23°C° 0 mm 2 mps 731 mmHg 36%
    17:00 +23°C° 0 mm 2 mps 731 mmHg 35%
    18:00 +21°C° 0 mm 2 mps 731 mmHg 41%
    19:00 +19°C° 0 mm 3 mps 732 mmHg 46%
    20:00 +18°C° 0 mm 3 mps 732 mmHg 51%
    21:00 +18°C° 0 mm 3 mps 732 mmHg 55%
    22:00 +17°C° 0 mm 4 mps 732 mmHg 60%
    23:00 +15°C° 0 mm 4 mps 732 mmHg 64%

    26 January, Saturday

    Time Temperature Precipitation Wind Pressure Humidity
    00:00 +15°C° 0 mm 4 mps 732 mmHg 68%
    01:00 +14°C° 0 mm 4 mps 732 mmHg 71%
    02:00 +14°C° 0 mm 4 mps 732 mmHg 75%
    03:00 +14°C° 0 mm 4 mps 732 mmHg 77%
    04:00 +13°C° 0 mm 4 mps 731 mmHg 78%
    05:00 +13°C° 0 mm 3 mps 731 mmHg 80%
    06:00 +13°C° 0 mm 3 mps 732 mmHg 78%
    07:00 +14°C° 0 mm 3 mps 733 mmHg 76%
    08:00 +14°C° 0 mm 3 mps 733 mmHg 75%
    09:00 +16°C° 0 mm 3 mps 734 mmHg 66%
    10:00 +18°C° 0 mm 2 mps 734 mmHg 57%
    11:00 +20°C° 0 mm 2 mps 734 mmHg 48%
    12:00 +21°C° 0 mm 1 mps 733 mmHg 43%
    13:00 +22°C° 0 mm 1 mps 733 mmHg 39%
    14:00 +23°C° 0 mm 1 mps 732 mmHg 34%
    15:00 +23°C° 0 mm 1 mps 732 mmHg 33%
    16:00 +23°C° 0 mm 1 mps 732 mmHg 33%
    17:00 +23°C° 0 mm 1 mps 732 mmHg 32%
    18:00 +22°C° 0 mm 1 mps 733 mmHg 35%
    19:00 +20°C° 0 mm 2 mps 733 mmHg 39%
    20:00 +19°C° 0 mm 3 mps 734 mmHg 42%
    21:00 +19°C° 0 mm 3 mps 734 mmHg 44%
    22:00 +18°C° 0 mm 3 mps 734 mmHg 47%
    23:00 +18°C° 0 mm 4 mps 734 mmHg 49%

    27 January, Sunday

    Time Temperature Precipitation Wind Pressure Humidity
    00:00 +17°C° 0 mm 4 mps 734 mmHg 52%
    01:00 +17°C° 0 mm 4 mps 734 mmHg 55%
    02:00 +15°C° 0 mm 5 mps 733 mmHg 57%
    03:00 +15°C° 0 mm 5 mps 733 mmHg 58%
    04:00 +14°C° 0 mm 5 mps 733 mmHg 59%
    05:00 +14°C° 0 mm 5 mps 733 mmHg 60%
    06:00 +14°C° 0 mm 5 mps 734 mmHg 57%
    07:00 +15°C° 0 mm 5 mps 734 mmHg 55%
    08:00 +15°C° 0 mm 5 mps 735 mmHg 52%
    09:00 +17°C° 0 mm 5 mps 735 mmHg 43%
    10:00 +20°C° 0 mm 5 mps 735 mmHg 34%
    11:00 +22°C° 0 mm 4 mps 735 mmHg 26%
    12:00 +23°C° 0 mm 4 mps 735 mmHg 23%
    13:00 +25°C° 0 mm 4 mps 734 mmHg 21%
    14:00 +26°C° 0 mm 4 mps 733 mmHg 18%
    15:00 +25°C° 0 mm 4 mps 733 mmHg 21%
    16:00 +23°C° 0 mm 4 mps 733 mmHg 23%
    17:00 +23°C° 0 mm 4 mps 733 mmHg 26%
    18:00 +22°C° 0 mm 4 mps 733 mmHg 32%
    19:00 +20°C° 0 mm 4 mps 734 mmHg 38%
    20:00 +19°C° 0 mm 4 mps 734 mmHg 43%
    21:00 +18°C° 0 mm 4 mps 734 mmHg 50%
    22:00 +17°C° 0 mm 4 mps 734 mmHg 56%
    23:00 +15°C° 0 mm 4 mps 734 mmHg 62%
    Show more